Location: Düngen
(52.0952°N, 10.0219°E)
Time: 19:26:09
(UTC+00:00)

Terra - Pass Details

Date: 11 March 2026
Orbit: 687 x 692 km, 98.0° (Epoch: 20 April)

Event Time Altitude Azimuth Distance (km) Brightness Sun altitude
Exits shadow 20:03:25 39° 208° (SSW) 1,043 2.6 -25.4°
Maximum altitude 20:04:50 53° 260° (W) 850 2.4 -25.6°
Drops below altitude 10° 20:09:28 10° 338° (NNW) 2,158 5.0 -26.2°
Sets 20:11:47 0° 343° (NNW) 3,079 5.8 -26.5°
